Location: *
(43.0517°S, 179.9849°W)
Time: 20:08:09
(UTC+00:00)

Daily predictions for brighter satellites

Satellite Brightness Start Highest point End
(mag) Time Altitude Azimuth Time Altitude Azimuth Time Altitude Azimuth
CZ-4C R/B 3.3 15:11:02 61° SSE 15:11:02 61° SSE 15:16:45 10° SE
Cosmos 1844 Rocket 3.9 15:19:02 37° SE 15:19:02 37° SE 15:22:30 10° SSE
ATLAS CENTAUR R/B 4.1 15:31:15 16° SSE 15:31:15 16° SSE 15:32:12 10° SSE
Lacrosse 5 rocket 4.2 15:32:47 12° ENE 15:32:47 12° ENE 15:33:11 10° NE
CENTAUR R/B 2.8 15:31:26 85° NE 15:31:32 85° NE 15:38:34 10° SE
SeaSat 1 4.2 15:30:22 10° ENE 15:34:35 29° SE 15:38:38 11° S
Meteor 1-11 Rocket 4.1 15:41:39 62° E 15:41:41 62° E 15:47:23 10° SSE
SL-16 R/B 2.5 15:36:46 10° SSE 15:43:02 78° ENE 15:43:13 77° NE
IRS-P3 4.3 15:59:40 10° NNE 16:05:00 70° ESE 16:10:24 10° S
FengYun 1-2 T 4.2 16:05:20 10° NNE 16:10:50 82° ESE 16:16:26 10° SSW
Cosmos 2263 Rocket 4.4 16:16:39 11° SSW 16:16:39 11° SSW 16:17:28 10° SSW
Cosmos 1975 4.2 16:13:44 10° NNE 16:17:25 38° E 16:21:10 10° SSE
BREEZE M DEB (TANK) 2.9 16:19:35 47° E 16:19:35 47° E 16:23:23 10° ESE
Cosmos 2228 Rocket 3.9 16:14:58 10° S 16:19:32 54° ESE 16:24:00 10° NNE
In-Cosmos 22 3.9 16:19:34 10° SSW 16:24:57 73° W 16:30:14 10° N
SL-8 R/B 3.6 16:28:41 66° WSW 16:29:22 89° SSE 16:34:12 10° ENE
Cosmos 1340 4.4 16:29:26 10° NNE 16:32:31 30° E 16:35:39 10° SSE
SL-14 R/B 4.1 16:29:52 10° S 16:33:42 51° E 16:37:30 10° NNE
Cosmos 1844 4.2 16:34:40 39° WSW 16:34:49 39° WSW 16:40:12 10° SSE
Meteor 1-23 Rocket 4.2 16:31:11 10° SSW 16:37:06 81° W 16:42:54 10° N
ARGOS 3.1 16:31:56 10° N 16:37:15 61° W 16:42:40 10° SSW
CZ-2C R/B 4.3 16:33:03 10° SSW 16:35:28 19° SW 16:35:28 19° SW
Cosmos 1655 Rocket 4.3 16:31:28 10° SSW 16:37:28 44° W 16:43:21 10° NNW
Timation 2 Rocket 3.9 16:35:57 43° WNW 16:37:36 56° WSW 16:43:34 10° SSE
Meteor 2-10 4.1 16:34:01 22° NNW 16:37:42 69° W 16:43:17 10° S
Meteor 1-13 Rocket 4.4 16:33:59 10° SSW 16:39:16 44° W 16:44:30 10° NNW
ARIANE 5 R/B 2.6 16:35:28 10° N 16:40:27 49° W 16:45:27 10° SSW
NOSS 3-2 (A) 4.2 16:36:28 32° WNW 16:40:46 60° SW 16:48:28 10° SSE
SJ-11-01 4.4 16:36:50 10° NNE 16:41:35 78° ESE 16:46:25 10° S
NOSS 3-3 (A) 3.8 16:36:45 10° SW 16:43:11 82° SE 16:48:40 10° NE
Meteor 1-21 4.5 16:37:38 10° S 16:43:31 73° E 16:49:15 10° NNE
Sich 1 4.4 16:45:41 25° SW 16:45:41 25° SW 16:48:03 10° S
Cosmos 1269 Rocket 4.0 16:43:42 10° SSW 16:49:00 63° WNW 16:54:14 10° N
NOSS 3-3 (C) 3.8 16:43:25 10° SW 16:49:51 86° SE 16:55:17 10° NE
Spot 4 Rocket 4.1 16:46:15 10° NNE 16:51:25 83° ESE 16:56:39 10° SSW
Okean 3 4.1 16:47:54 10° S 16:52:09 57° E 16:56:21 10° NNE
DELTA 2 R/B (1) 3.8 16:51:03 32° WNW 16:53:31 59° N 16:58:59 10° E
Cosmos 1633 Rocket 3.0 16:53:09 10° N 16:57:35 86° W 17:02:06 10° S
DMSP B5D2-2 4.1 16:52:39 10° SSE 16:58:01 84° ENE 17:03:17 10° NNW
CZ-4C R/B 4.0 16:56:10 22° WSW 16:58:55 26° SW 17:04:32 10° SSE
USA 238 DEB 4.2 16:51:42 10° NNW 16:59:35 71° ENE 17:07:02 10° SE
USA 238 4.3 16:51:49 10° NNW 16:59:43 70° ENE 17:07:10 10° SE
Cosmos 2285 Rocket 4.0 16:54:44 10° SSW 17:01:16 84° WNW 17:07:39 10° NNE
Cosmos 1844 Rocket 3.9 17:00:43 22° WSW 17:01:16 23° SW 17:05:40 10° S
Cosmos 1356 Rocket 4.4 16:58:07 10° S 17:02:18 50° ESE 17:06:21 10° NNE
NOAA 12 4.3 16:57:28 10° N 17:02:28 44° W 17:07:34 10° SSW
Cosmos 220 Rocket 4.3 17:04:16 27° WSW 17:05:53 38° WNW 17:09:46 10° N
ATLAS CENTAUR R/B 3.6 17:06:24 12° SW 17:06:30 12° SW 17:08:18 10° S
Lacrosse 5 rocket 3.1 17:07:48 18° NW 17:07:48 18° NW 17:09:59 10° NNW
SeaSat 1 2.8 17:07:09 10° N 17:11:50 43° WNW 17:16:35 10° SW
Cosmos 1805 3.7 17:11:47 25° WNW 17:13:15 35° WSW 17:16:47 10° S
Cosmos 1140 Rocket 3.5 17:08:21 10° SSW 17:13:35 87° ESE 17:18:45 10° NNE
CZ-2D R/B 4.2 17:11:42 10° NNW 17:15:36 32° W 17:19:35 10° SSW
GENESIS II 4.4 17:17:20 27° WNW 17:18:49 42° SW 17:22:14 10° SSE
Cosmos 1818 4.0 17:13:57 10° SSW 17:19:19 63° SE 17:24:39 10° NE
Cosmos 1943 Rocket 4.1 17:15:18 10° NNE 17:20:14 32° ENE 17:25:10 10° SE
SJ-7 4.3 17:16:21 10° NNE 17:20:17 90° WSW 17:24:17 10° SSW
S3M 4.1 17:14:44 10° N 17:21:07 87° E 17:27:38 10° S
PSLV R/B 3.5 17:17:12 10° N 17:21:16 53° W 17:25:23 10° SSW
Cosmos 1470 4.5 17:17:58 10° NNE 17:21:27 36° E 17:24:59 10° SSE
[s.n.70599] 2.3 17:21:18 36° W 17:22:10 76° N 17:24:44 10° ENE
CENTAUR R/B 3.8 17:18:38 18° W 17:22:50 29° SW 17:28:30 10° SSE
Cosmos 407 Rocket 3.7 17:19:23 10° SSW 17:24:36 75° ESE 17:29:50 10° NNE
SL-16 R/B 3.8 17:21:37 10° SSW 17:25:54 20° WSW 17:28:18 16° W
Cosmos 1862 Rocket 4.0 17:23:45 10° SSW 17:28:01 41° W 17:32:15 10° NNW
SMAP 3.1 17:23:51 10° NNE 17:28:33 89° WNW 17:33:20 10° SSW
Cosmos 1023 Rocket 4.4 17:23:55 10° SSW 17:29:00 65° WNW 17:34:05 10° N
AQUARIUS 4.4 17:27:59 10° NNE 17:32:28 75° ESE 17:37:00 10° S
GEOS 3 Rocket 3.9 17:28:44 10° SSE 17:33:49 52° SW 17:38:57 10° WNW
SL-4 R/B 3.7 17:33:15 10° NNW 17:36:49 33° NE 17:40:38 10° ESE
USA 234 4.4 17:31:41 10° E 17:37:36 37° SSE 17:43:33 10° SW
ASTEX 1 3.7 17:32:57 10° S 17:37:55 72° E 17:42:50 10° N
Cosmos 1833 Rocket 2.8 17:36:44 10° SSW 17:42:20 59° WNW 17:47:52 10° N
Okean 1-7 3.0 17:38:28 10° SSW 17:42:48 60° W 17:47:01 10° N
Cosmos 1470 Rocket 3.9 17:38:49 10° NNW 17:43:09 45° WSW 17:47:32 10° S
Cosmos 2315 Rocket 4.1 17:39:53 10° N 17:46:10 90° WSW 17:52:37 10° S
Cosmos 1315 Rocket 3.8 17:43:44 10° S 17:47:44 52° ESE 17:51:40 10° NNE
Cosmos 1766 3.6 17:48:47 10° NNW 17:52:19 38° WSW 17:55:56 10° S
Milstar 3 Cent rocket 4.5 17:47:59 10° NW 17:53:22 19° N 17:57:17 10° NE
Cosmos 1975 4.4 17:50:56 10° WNW 17:53:32 17° WSW 17:56:10 10° SSW
Cosmos 1400 Rocket 3.9 17:51:28 10° SW 17:54:30 22° W 17:57:30 10° NW
Cosmos 2082 Rocket 3.0 17:51:12 10° SSW 17:56:47 56° ESE 18:02:20 10° NE
Okean 2 3.7 17:54:01 10° SSW 17:57:59 46° W 18:01:54 10° NNW
CZ-4B R/B 3.8 17:55:18 10° N 17:59:20 72° WNW 18:03:16 10° SSW
Cosmos 2278 Rocket 2.2 17:55:53 10° NNW 18:01:33 69° WSW 18:07:16 10° SSE
Cosmos 1709 Rocket 4.0 17:55:28 10° SSW 18:01:42 64° W 18:07:47 10° N
Cosmos 2251 Rocket 3.7 17:58:51 10° SSW 18:04:07 53° WNW 18:09:18 10° N
